| time (UTC) | temp F | wind direction | speed MPH | gust MPH | rain 1hr in | rain 24hr in | rain mn in | humidity % | barometer mb |
| 20260904151305 | 69 | 153 | 5.0 | 20.0 | 0.00 | 0.00 | 0.00 | 42 | 1011.5 |
| 20260904150804 | 68 | 142 | 5.0 | 20.0 | 0.00 | 0.00 | 0.00 | 42 | 1011.5 |
| 20260904150305 | 68 | 145 | 5.0 | 20.0 | 0.00 | 0.00 | 0.00 | 45 | 1011.6 |
| 20260904145804 | 67 | 150 | 4.0 | 20.0 | 0.00 | 0.00 | 0.00 | 48 | 1011.7 |
| 20260904145306 | 67 | 177 | 3.0 | 20.0 | 0.00 | 0.00 | 0.00 | 50 | 1011.7 |
| 20260904144805 | 67 | 145 | 5.0 | 20.0 | 0.00 | 0.00 | 0.00 | 50 | 1011.7 |
| 20260904144304 | 67 | 159 | 4.0 | 20.0 | 0.00 | 0.00 | 0.00 | 53 | 1011.7 |
| 20260904143305 | 66 | 184 | 1.0 | 20.0 | 0.00 | 0.00 | 0.00 | 56 | 1011.6 |
| 20260904142805 | 66 | 154 | 2.0 | 20.0 | 0.00 | 0.00 | 0.00 | 57 | 1011.6 |
| 20260904142306 | 66 | 195 | 2.0 | 20.0 | 0.00 | 0.00 | 0.00 | 58 | 1011.6 |
| 20260904141804 | 65 | 107 | 1.0 | 20.0 | 0.00 | 0.00 | 0.00 | 58 | 1011.5 |
| 20260904140805 | 65 | 148 | 5.0 | 20.0 | 0.00 | 0.00 | 0.00 | 56 | 1011.5 |
| 20260904140305 | 64 | 119 | 1.0 | 20.0 | 0.00 | 0.00 | 0.00 | 57 | 1011.2 |
| 20260904135805 | 64 | 105 | 1.0 | 20.0 | 0.00 | 0.00 | 0.00 | 57 | 1011.2 |
| 20260904135306 | 64 | 127 | 3.0 | 20.0 | 0.00 | 0.00 | 0.00 | 58 | 1011.2 |
| 20260904134804 | 64 | 149 | 3.0 | 20.0 | 0.00 | 0.00 | 0.00 | 58 | 1011.2 |
| 20260904133304 | 63 | 162 | 4.0 | 20.0 | 0.00 | 0.00 | 0.00 | 58 | 1011.1 |
| 20260904132805 | 63 | 159 | 3.0 | 20.0 | 0.00 | 0.00 | 0.00 | 57 | 1011.1 |
| 20260904132306 | 64 | 179 | 4.0 | 20.0 | 0.00 | 0.00 | 0.00 | 56 | 1010.7 |
| 20260904131305 | 64 | 135 | 5.0 | 20.0 | 0.00 | 0.00 | 0.00 | 52 | 1010.7 |
| 20260904130805 | 64 | 127 | 3.0 | 20.0 | 0.00 | 0.00 | 0.00 | 51 | 1010.7 |
| 20260904130304 | 65 | 156 | 6.0 | 20.0 | 0.00 | 0.00 | 0.00 | 50 | 1010.5 |
| 20260904125805 | 65 | 124 | 6.0 | 20.0 | 0.00 | 0.00 | 0.00 | 53 | 1010.5 |
| 20260904124805 | 66 | 144 | 6.0 | 20.0 | 0.00 | 0.00 | 0.00 | 51 | 1010.3 |
| 20260904124305 | 67 | 145 | 6.0 | 20.0 | 0.00 | 0.00 | 0.00 | 49 | 1010.3 |
| 20260904123804 | 68 | 169 | 6.0 | 20.0 | 0.00 | 0.00 | 0.00 | 45 | 1010.3 |
| 20260904123305 | 69 | 152 | 6.0 | 20.0 | 0.00 | 0.00 | 0.00 | 38 | 1010.3 |
| 20260904122306 | 70 | 143 | 6.0 | 20.0 | 0.00 | 0.00 | 0.00 | 26 | 1010.1 |
| 20260904121805 | 70 | 142 | 7.0 | 20.0 | 0.00 | 0.00 | 0.00 | 25 | 1010.0 |
| 20260904121305 | 70 | 159 | 6.0 | 20.0 | 0.00 | 0.00 | 0.00 | 24 | 1010.0 |
| 20260904120304 | 70 | 159 | 6.0 | 20.0 | 0.00 | 0.00 | 0.00 | 26 | 1009.8 |
| 20260904115306 | 70 | 154 | 6.0 | 20.0 | 0.00 | 0.00 | 0.00 | 26 | 1009.6 |
| 20260904114304 | 70 | 152 | 7.0 | 20.0 | 0.00 | 0.00 | 0.00 | 27 | 1009.6 |
| 20260904113304 | 70 | 143 | 6.0 | 20.0 | 0.00 | 0.00 | 0.00 | 29 | 1009.6 |
| 20260904112805 | 71 | 138 | 7.0 | 20.0 | 0.00 | 0.00 | 0.00 | 28 | 1009.6 |
| 20260904111805 | 72 | 140 | 10.0 | 20.0 | 0.00 | 0.00 | 0.00 | 24 | 1009.5 |
| 20260904111305 | 72 | 147 | 6.0 | 20.0 | 0.00 | 0.00 | 0.00 | 22 | 1009.5 |
| 20260904110805 | 72 | 150 | 9.0 | 20.0 | 0.00 | 0.00 | 0.00 | 20 | 1009.4 |
| 20260904110305 | 72 | 148 | 8.0 | 20.0 | 0.00 | 0.00 | 0.00 | 19 | 1009.4 |
| 20260904105805 | 72 | 138 | 7.0 | 20.0 | 0.00 | 0.00 | 0.00 | 19 | 1009.4 |
| 20260904104305 | 73 | 145 | 10.0 | 20.0 | 0.00 | 0.00 | 0.00 | 18 | 1009.3 |
| 20260904103805 | 73 | 133 | 7.0 | 20.0 | 0.00 | 0.00 | 0.00 | 17 | 1009.3 |
| 20260904103305 | 73 | 139 | 9.0 | 20.0 | 0.00 | 0.00 | 0.00 | 16 | 1009.3 |
| 20260904102804 | 73 | 157 | 9.0 | 20.0 | 0.00 | 0.00 | 0.00 | 17 | 1009.3 |
| 20260904102307 | 74 | 143 | 7.0 | 20.0 | 0.00 | 0.00 | 0.00 | 16 | 1009.3 |
| 20260904101804 | 74 | 156 | 8.0 | 20.0 | 0.00 | 0.00 | 0.00 | 17 | 1008.8 |
| 20260904101304 | 74 | 157 | 10.0 | 20.0 | 0.00 | 0.00 | 0.00 | 16 | 1008.8 |
| 20260904100805 | 74 | 138 | 9.0 | 20.0 | 0.00 | 0.00 | 0.00 | 16 | 1008.8 |
| 20260904100304 | 74 | 141 | 10.0 | 20.0 | 0.00 | 0.00 | 0.00 | 16 | 1008.6 |
| 20260904094804 | 73 | 132 | 11.0 | 17.0 | 0.00 | 0.00 | 0.00 | 18 | 1008.6 |
| 20260904094304 | 73 | 124 | 10.0 | 17.0 | 0.00 | 0.00 | 0.00 | 17 | 1008.6 |
| 20260904093805 | 73 | 133 | 13.0 | 17.0 | 0.00 | 0.00 | 0.00 | 18 | 1008.5 |
| 20260904093305 | 73 | 127 | 9.0 | 17.0 | 0.00 | 0.00 | 0.00 | 19 | 1008.6 |
| 20260904092805 | 73 | 128 | 9.0 | 15.0 | 0.00 | 0.00 | 0.00 | 19 | 1008.6 |
| 20260904092306 | 73 | 119 | 9.0 | 16.0 | 0.00 | 0.00 | 0.00 | 20 | 1008.6 |
| 20260904091805 | 73 | 130 | 9.0 | 12.0 | 0.00 | 0.00 | 0.00 | 21 | 1008.4 |
| 20260904091305 | 72 | 130 | 7.0 | 12.0 | 0.00 | 0.00 | 0.00 | 21 | 1008.4 |
| 20260904090805 | 72 | 133 | 6.0 | 10.0 | 0.00 | 0.00 | 0.00 | 22 | 1008.4 |
| 20260904090305 | 72 | 144 | 6.0 | 12.0 | 0.00 | 0.00 | 0.00 | 23 | 1008.4 |
| 20260904085306 | 72 | 136 | 8.0 | 12.0 | 0.00 | 0.00 | 0.00 | 23 | 1008.4 |
| 20260904084804 | 72 | 140 | 7.0 | 12.0 | 0.00 | 0.00 | 0.00 | 23 | 1008.4 |
| 20260904084305 | 72 | 138 | 7.0 | 10.0 | 0.00 | 0.00 | 0.00 | 23 | 1008.4 |
| 20260904083805 | 72 | 138 | 5.0 | 10.0 | 0.00 | 0.00 | 0.00 | 23 | 1008.4 |
| 20260904083305 | 72 | 144 | 6.0 | 9.0 | 0.00 | 0.00 | 0.00 | 22 | 1008.4 |
| 20260904082804 | 72 | 139 | 6.0 | 12.0 | 0.00 | 0.00 | 0.00 | 22 | 1008.4 |
| 20260904082306 | 72 | 143 | 7.0 | 12.0 | 0.00 | 0.00 | 0.00 | 23 | 1008.4 |
| 20260904080805 | 72 | 138 | 8.0 | 12.0 | 0.00 | 0.00 | 0.00 | 23 | 1008.4 |
| 20260904075804 | 72 | 154 | 5.0 | 9.0 | 0.00 | 0.00 | 0.00 | 21 | 1008.3 |
| 20260904075306 | 72 | 160 | 4.0 | 10.0 | 0.00 | 0.00 | 0.00 | 21 | 1008.1 |
| 20260904074805 | 72 | 132 | 5.0 | 9.0 | 0.00 | 0.00 | 0.00 | 22 | 1008.1 |
| 20260904074305 | 72 | 142 | 5.0 | 9.0 | 0.00 | 0.00 | 0.00 | 22 | 1008.1 |
| 20260904073805 | 72 | 145 | 6.0 | 9.0 | 0.00 | 0.00 | 0.00 | 23 | 1008.1 |
| 20260904073304 | 72 | 151 | 6.0 | 12.0 | 0.00 | 0.00 | 0.00 | 24 | 1008.0 |
| 20260904072804 | 72 | 145 | 5.0 | 12.0 | 0.00 | 0.00 | 0.00 | 25 | 1008.0 |
| 20260904072306 | 72 | 145 | 6.0 | 8.0 | 0.00 | 0.00 | 0.00 | 26 | 1008.1 |
| 20260904071804 | 72 | 152 | 6.0 | 10.0 | 0.00 | 0.00 | 0.00 | 27 | 1008.1 |
| 20260904071305 | 72 | 153 | 5.0 | 7.0 | 0.00 | 0.00 | 0.00 | 28 | 1008.1 |
| 20260904070804 | 73 | 153 | 5.0 | 8.0 | 0.00 | 0.00 | 0.00 | 28 | 1008.0 |
| 20260904070305 | 73 | 164 | 5.0 | 8.0 | 0.00 | 0.00 | 0.00 | 27 | 1008.0 |
| 20260904065804 | 74 | 171 | 5.0 | 8.0 | 0.00 | 0.00 | 0.00 | 26 | 1008.0 |
| 20260904065306 | 74 | 166 | 5.0 | 9.0 | 0.00 | 0.00 | 0.00 | 24 | 1007.9 |
| 20260904064304 | 75 | 158 | 7.0 | 12.0 | 0.00 | 0.00 | 0.00 | 21 | 1007.6 |
| 20260904063804 | 75 | 157 | 9.0 | 15.0 | 0.00 | 0.00 | 0.00 | 21 | 1007.6 |
| 20260904063305 | 74 | 159 | 7.0 | 12.0 | 0.00 | 0.00 | 0.00 | 22 | 1007.6 |
| 20260904062805 | 75 | 164 | 6.0 | 9.0 | 0.00 | 0.00 | 0.00 | 22 | 1007.5 |
| 20260904062306 | 74 | 161 | 7.0 | 12.0 | 0.00 | 0.00 | 0.00 | 22 | 1007.5 |
| 20260904061804 | 74 | 162 | 5.0 | 14.0 | 0.00 | 0.00 | 0.00 | 23 | 1007.4 |
| 20260904060804 | 75 | 158 | 7.0 | 12.0 | 0.00 | 0.00 | 0.00 | 24 | 1007.4 |
| 20260904060305 | 75 | 161 | 5.0 | 12.0 | 0.00 | 0.00 | 0.00 | 24 | 1007.3 |
| 20260904055306 | 75 | 140 | 8.0 | 14.0 | 0.00 | 0.00 | 0.00 | 23 | 1007.3 |
| 20260904054304 | 75 | 142 | 6.0 | 10.0 | 0.00 | 0.00 | 0.00 | 26 | 1007.4 |
| 20260904053804 | 76 | 151 | 6.0 | 12.0 | 0.00 | 0.00 | 0.00 | 24 | 1007.4 |
| 20260904053305 | 76 | 146 | 6.0 | 14.0 | 0.00 | 0.00 | 0.00 | 24 | 1007.4 |
| 20260904052805 | 76 | 135 | 5.0 | 12.0 | 0.00 | 0.00 | 0.00 | 23 | 1007.3 |
| 20260904052307 | 76 | 147 | 7.0 | 10.0 | 0.00 | 0.00 | 0.00 | 22 | 1007.3 |
| 20260904051805 | 76 | 143 | 5.0 | 9.0 | 0.00 | 0.00 | 0.00 | 22 | 1007.3 |
| 20260904051304 | 76 | 146 | 5.0 | 9.0 | 0.00 | 0.00 | 0.00 | 21 | 1007.3 |
| 20260904050804 | 77 | 150 | 5.0 | 10.0 | 0.00 | 0.00 | 0.00 | 21 | 1007.3 |
| 20260904050305 | 77 | 137 | 6.0 | 10.0 | 0.00 | 0.00 | 0.00 | 21 | 1007.3 |
| 20260904045804 | 77 | 146 | 7.0 | 12.0 | 0.00 | 0.00 | 0.00 | 21 | 1007.3 |
| 20260904045307 | 77 | 150 | 7.0 | 12.0 | 0.00 | 0.00 | 0.00 | 21 | 1007.3 |
| 20260904044805 | 77 | 146 | 5.0 | 8.0 | 0.00 | 0.00 | 0.00 | 22 | 1007.3 |
| 20260904044304 | 77 | 143 | 6.0 | 10.0 | 0.00 | 0.00 | 0.00 | 22 | 1007.3 |
| 20260904043805 | 77 | 147 | 6.0 | 10.0 | 0.00 | 0.00 | 0.00 | 22 | 1007.3 |
| 20260904043304 | 77 | 134 | 8.0 | 12.0 | 0.00 | 0.00 | 0.00 | 22 | 1007.3 |
| 20260904042805 | 77 | 135 | 7.0 | 12.0 | 0.00 | 0.00 | 0.00 | 22 | 1007.3 |
| 20260904042306 | 77 | 145 | 5.0 | 12.0 | 0.00 | 0.00 | 0.00 | 23 | 1007.3 |
| 20260904041804 | 77 | 147 | 7.0 | 12.0 | 0.00 | 0.00 | 0.00 | 25 | 1007.3 |
| 20260904041305 | 76 | 129 | 8.0 | 14.0 | 0.00 | 0.00 | 0.00 | 24 | 1007.3 |
| 20260904040805 | 76 | 146 | 5.0 | 8.0 | 0.00 | 0.00 | 0.00 | 25 | 1007.2 |
| 20260904040305 | 76 | 146 | 6.0 | 12.0 | 0.00 | 0.00 | 0.00 | 26 | 1007.2 |
| 20260904035804 | 76 | 139 | 6.0 | 10.0 | 0.00 | 0.00 | 0.00 | 26 | 1007.2 |
| 20260904035306 | 76 | 154 | 6.0 | 9.0 | 0.00 | 0.00 | 0.00 | 27 | 1007.2 |
| 20260904034804 | 76 | 147 | 3.0 | 8.0 | 0.00 | 0.00 | 0.00 | 26 | 1007.2 |
| 20260904034304 | 76 | 148 | 5.0 | 8.0 | 0.00 | 0.00 | 0.00 | 28 | 1007.2 |
| 20260904033304 | 77 | 137 | 4.0 | 10.0 | 0.00 | 0.00 | 0.00 | 30 | 1007.2 |
| 20260904032804 | 78 | 138 | 4.0 | 10.0 | 0.00 | 0.00 | 0.00 | 29 | 1007.2 |
| 20260904032306 | 79 | 126 | 3.0 | 6.0 | 0.00 | 0.00 | 0.00 | 27 | 1006.5 |
| 20260904031305 | 80 | 166 | 4.0 | 12.0 | 0.00 | 0.00 | 0.00 | 15 | 1006.5 |
| 20260904030804 | 79 | 196 | 2.0 | 3.0 | 0.00 | 0.00 | 0.00 | 15 | 1006.5 |
| 20260904030305 | 79 | 185 | 3.0 | 8.0 | 0.00 | 0.00 | 0.00 | 15 | 1006.5 |
| 20260904025804 | 79 | 201 | 5.0 | 8.0 | 0.00 | 0.00 | 0.00 | 15 | 1006.5 |
| 20260904025306 | 80 | 202 | 3.0 | 5.0 | 0.00 | 0.00 | 0.00 | 15 | 1006.6 |
| 20260904024804 | 80 | 217 | 4.0 | 6.0 | 0.00 | 0.00 | 0.00 | 15 | 1006.5 |
| 20260904024304 | 80 | 224 | 5.0 | 9.0 | 0.00 | 0.00 | 0.00 | 15 | 1006.5 |
| 20260904023805 | 80 | 223 | 6.0 | 10.0 | 0.00 | 0.00 | 0.00 | 15 | 1006.4 |
| 20260904023304 | 81 | 218 | 5.0 | 8.0 | 0.00 | 0.00 | 0.00 | 15 | 1006.4 |
| 20260904022306 | 81 | 215 | 7.0 | 10.0 | 0.00 | 0.00 | 0.00 | 14 | 1006.4 |
| 20260904021304 | 81 | 192 | 7.0 | 10.0 | 0.00 | 0.00 | 0.00 | 14 | 1006.4 |
| 20260904020804 | 81 | 193 | 7.0 | 12.0 | 0.00 | 0.00 | 0.00 | 14 | 1006.4 |
| 20260904014804 | 82 | 204 | 9.0 | 13.0 | 0.00 | 0.00 | 0.00 | 14 | 1006.4 |
| 20260904014304 | 82 | 199 | 9.0 | 16.0 | 0.00 | 0.00 | 0.00 | 14 | 1006.4 |
| 20260904013805 | 82 | 203 | 8.0 | 15.0 | 0.00 | 0.00 | 0.00 | 14 | 1006.4 |
| 20260904013305 | 82 | 193 | 7.0 | 12.0 | 0.00 | 0.00 | 0.00 | 15 | 1006.5 |
| 20260904012805 | 83 | 192 | 5.0 | 12.0 | 0.00 | 0.00 | 0.00 | 14 | 1006.5 |
| 20260904012306 | 83 | 186 | 8.0 | 13.0 | 0.00 | 0.00 | 0.00 | 14 | 1006.5 |
| 20260904011804 | 83 | 189 | 10.0 | 21.0 | 0.00 | 0.00 | 0.00 | 14 | 1006.6 |
| 20260904005306 | 83 | 210 | 6.0 | 12.0 | 0.00 | 0.00 | 0.00 | 19 | 1006.9 |
| 20260904004804 | 83 | 197 | 4.0 | 9.0 | 0.00 | 0.00 | 0.00 | 20 | 1006.9 |
| 20260904004304 | 83 | 180 | 5.0 | 8.0 | 0.00 | 0.00 | 0.00 | 18 | 1006.9 |
| 20260904003804 | 84 | 202 | 5.0 | 12.0 | 0.00 | 0.00 | 0.00 | 17 | 1006.9 |
| 20260904003304 | 84 | 171 | 5.0 | 12.0 | 0.00 | 0.00 | 0.00 | 16 | 1006.9 |
| 20260904002804 | 84 | 154 | 7.0 | 12.0 | 0.00 | 0.00 | 0.00 | 17 | 1006.9 |
| 20260904001805 | 85 | 153 | 6.0 | 10.0 | 0.00 | 0.00 | 0.00 | 16 | 1006.8 |
| 20260904001304 | 85 | 150 | 6.0 | 12.0 | 0.00 | 0.00 | 0.00 | 16 | 1006.7 |
| 20260904000804 | 85 | 151 | 7.0 | 13.0 | 0.00 | 0.00 | 0.00 | 15 | 1006.7 |
| 20260904000304 | 85 | 145 | 9.0 | 14.0 | 0.00 | 0.00 | 0.00 | 14 | 1006.7 |
| 20260903235305 | 85 | 162 | 9.0 | 12.0 | 0.00 | 0.00 | 0.00 | 14 | 1006.9 |
| 20260903234804 | 85 | 162 | 8.0 | 13.0 | 0.00 | 0.00 | 0.00 | 14 | 1006.8 |
| 20260903234304 | 85 | 145 | 7.0 | 16.0 | 0.00 | 0.00 | 0.00 | 14 | 1006.9 |
| 20260903233804 | 85 | 161 | 6.0 | 13.0 | 0.00 | 0.00 | 0.00 | 14 | 1007.0 |
| 20260903232306 | 85 | 153 | 6.0 | 16.0 | 0.00 | 0.00 | 0.00 | 15 | 1007.1 |
| 20260903231804 | 84 | 155 | 7.0 | 12.0 | 0.00 | 0.00 | 0.00 | 15 | 1007.2 |
| 20260903231304 | 85 | 164 | 8.0 | 14.0 | 0.00 | 0.00 | 0.00 | 15 | 1007.2 |
| 20260903230304 | 84 | 154 | 6.0 | 13.0 | 0.00 | 0.00 | 0.00 | 15 | 1007.4 |
| 20260903225306 | 84 | 139 | 7.0 | 15.0 | 0.00 | 0.00 | 0.00 | 15 | 1007.9 |
| 20260903224805 | 84 | 142 | 9.0 | 12.0 | 0.00 | 0.00 | 0.00 | 15 | 1007.9 |
| 20260903224305 | 84 | 153 | 6.0 | 10.0 | 0.00 | 0.00 | 0.00 | 14 | 1007.9 |
| 20260903223804 | 84 | 160 | 9.0 | 16.0 | 0.00 | 0.00 | 0.00 | 14 | 1007.9 |
| 20260903223305 | 83 | 133 | 9.0 | 16.0 | 0.00 | 0.00 | 0.00 | 15 | 1007.9 |
| 20260903222804 | 83 | 129 | 11.0 | 17.0 | 0.00 | 0.00 | 0.00 | 14 | 1007.9 |
| 20260903221804 | 83 | 141 | 9.0 | 16.0 | 0.00 | 0.00 | 0.00 | 15 | 1008.0 |
| 20260903221304 | 84 | 131 | 10.0 | 16.0 | 0.00 | 0.00 | 0.00 | 16 | 1008.1 |
| 20260903220804 | 84 | 141 | 8.0 | 15.0 | 0.00 | 0.00 | 0.00 | 16 | 1008.2 |
| 20260903220304 | 83 | 136 | 8.0 | 15.0 | 0.00 | 0.00 | 0.00 | 16 | 1008.1 |
| 20260903215804 | 83 | 143 | 10.0 | 15.0 | 0.00 | 0.00 | 0.00 | 15 | 1008.4 |
| 20260903215306 | 83 | 127 | 10.0 | 16.0 | 0.00 | 0.00 | 0.00 | 15 | 1008.4 |
| 20260903214804 | 83 | 138 | 11.0 | 17.0 | 0.00 | 0.00 | 0.00 | 14 | 1008.4 |
| 20260903213805 | 83 | 137 | 10.0 | 18.0 | 0.00 | 0.00 | 0.00 | 16 | 1008.4 |
| 20260903213304 | 83 | 132 | 11.0 | 16.0 | 0.00 | 0.00 | 0.00 | 15 | 1008.6 |
| 20260903212804 | 83 | 135 | 11.0 | 15.0 | 0.00 | 0.00 | 0.00 | 14 | 1008.7 |
| 20260903212306 | 83 | 134 | 9.0 | 13.0 | 0.00 | 0.00 | 0.00 | 15 | 1008.7 |
| 20260903211804 | 83 | 122 | 6.0 | 16.0 | 0.00 | 0.00 | 0.00 | 15 | 1008.8 |
| 20260903211305 | 83 | 129 | 12.0 | 15.0 | 0.00 | 0.00 | 0.00 | 14 | 1008.8 |
| 20260903210804 | 83 | 132 | 9.0 | 15.0 | 0.00 | 0.00 | 0.00 | 15 | 1009.0 |
| 20260903205805 | 83 | 144 | 7.0 | 14.0 | 0.00 | 0.00 | 0.00 | 15 | 1009.2 |
| 20260903205306 | 83 | 146 | 10.0 | 15.0 | 0.00 | 0.00 | 0.00 | 15 | 1009.2 |
| 20260903204804 | 83 | 145 | 10.0 | 18.0 | 0.00 | 0.00 | 0.00 | 16 | 1009.2 |
| 20260903204304 | 83 | 157 | 10.0 | 15.0 | 0.00 | 0.00 | 0.00 | 16 | 1009.2 |
| 20260903203804 | 83 | 149 | 9.0 | 20.0 | 0.00 | 0.00 | 0.00 | 15 | 1009.3 |
| 20260903203304 | 82 | 144 | 7.0 | 15.0 | 0.00 | 0.00 | 0.00 | 17 | 1009.9 |
| 20260903202805 | 82 | 152 | 8.0 | 14.0 | 0.00 | 0.00 | 0.00 | 17 | 1009.9 |
| 20260903202306 | 82 | 161 | 10.0 | 18.0 | 0.00 | 0.00 | 0.00 | 17 | 1009.9 |
| 20260903201804 | 82 | 165 | 12.0 | 20.0 | 0.00 | 0.00 | 0.00 | 17 | 1009.9 |
| 20260903201304 | 82 | 144 | 9.0 | 17.0 | 0.00 | 0.00 | 0.00 | 16 | 1009.9 |
| 20260903200804 | 82 | 162 | 9.0 | 17.0 | 0.00 | 0.00 | 0.00 | 16 | 1009.8 |
| 20260903200304 | 82 | 177 | 9.0 | 21.0 | 0.00 | 0.00 | 0.00 | 17 | 1009.8 |
| 20260903195804 | 82 | 168 | 8.0 | 21.0 | 0.00 | 0.00 | 0.00 | 17 | 1009.8 |
| 20260903195306 | 81 | 155 | 13.0 | 20.0 | 0.00 | 0.00 | 0.00 | 17 | 1009.8 |
| 20260903194804 | 81 | 166 | 10.0 | 17.0 | 0.00 | 0.00 | 0.00 | 17 | 1010.3 |
| 20260903194304 | 81 | 155 | 9.0 | 14.0 | 0.00 | 0.00 | 0.00 | 16 | 1010.3 |
| 20260903193805 | 81 | 139 | 6.0 | 16.0 | 0.00 | 0.00 | 0.00 | 18 | 1010.3 |
| 20260903193305 | 80 | 155 | 10.0 | 16.0 | 0.00 | 0.00 | 0.00 | 16 | 1010.2 |
| 20260903192805 | 80 | 152 | 8.0 | 15.0 | 0.00 | 0.00 | 0.00 | 19 | 1010.4 |
| 20260903192306 | 80 | 129 | 9.0 | 17.0 | 0.00 | 0.00 | 0.00 | 17 | 1010.7 |
| 20260903191804 | 80 | 137 | 8.0 | 17.0 | 0.00 | 0.00 | 0.00 | 18 | 1010.7 |
| 20260903191305 | 81 | 140 | 7.0 | 14.0 | 0.00 | 0.00 | 0.00 | 18 | 1010.7 |
| 20260903190304 | 80 | 142 | 7.0 | 16.0 | 0.00 | 0.00 | 0.00 | 17 | 1010.8 |
| 20260903185804 | 80 | 132 | 9.0 | 16.0 | 0.00 | 0.00 | 0.00 | 17 | 1010.8 |
| 20260903185306 | 80 | 153 | 8.0 | 17.0 | 0.00 | 0.00 | 0.00 | 19 | 1011.1 |
| 20260903184804 | 79 | 139 | 9.0 | 14.0 | 0.00 | 0.00 | 0.00 | 20 | 1011.1 |
| 20260903184304 | 79 | 130 | 7.0 | 15.0 | 0.00 | 0.00 | 0.00 | 19 | 1011.1 |
| 20260903183804 | 79 | 152 | 8.0 | 13.0 | 0.00 | 0.00 | 0.00 | 20 | 1011.4 |
| 20260903182804 | 79 | 137 | 9.0 | 13.0 | 0.00 | 0.00 | 0.00 | 20 | 1011.7 |
| 20260903182306 | 79 | 156 | 8.0 | 12.0 | 0.00 | 0.00 | 0.00 | 20 | 1011.7 |
| 20260903181805 | 78 | 163 | 7.0 | 12.0 | 0.00 | 0.00 | 0.00 | 20 | 1011.7 |
| 20260903181304 | 78 | 154 | 9.0 | 14.0 | 0.00 | 0.00 | 0.00 | 22 | 1011.8 |
| 20260903180305 | 78 | 156 | 6.0 | 13.0 | 0.00 | 0.00 | 0.00 | 21 | 1011.9 |
| 20260903175805 | 78 | 161 | 8.0 | 12.0 | 0.00 | 0.00 | 0.00 | 21 | 1011.9 |
| 20260903175306 | 78 | 167 | 9.0 | 13.0 | 0.00 | 0.00 | 0.00 | 20 | 1012.0 |
| 20260903174804 | 78 | 156 | 5.0 | 12.0 | 0.00 | 0.00 | 0.00 | 22 | 1012.0 |
| 20260903174304 | 77 | 145 | 7.0 | 12.0 | 0.00 | 0.00 | 0.00 | 21 | 1012.0 |
| 20260903173804 | 77 | 141 | 6.0 | 12.0 | 0.00 | 0.00 | 0.00 | 19 | 1012.0 |
| 20260903172804 | 76 | 148 | 6.0 | 14.0 | 0.00 | 0.00 | 0.00 | 20 | 1011.9 |
| 20260903172306 | 76 | 130 | 9.0 | 14.0 | 0.00 | 0.00 | 0.00 | 19 | 1011.9 |
| 20260903171804 | 76 | 138 | 7.0 | 13.0 | 0.00 | 0.00 | 0.00 | 18 | 1011.9 |
| 20260903171304 | 76 | 132 | 9.0 | 13.0 | 0.00 | 0.00 | 0.00 | 18 | 1012.0 |
| 20260903170805 | 76 | 128 | 9.0 | 14.0 | 0.00 | 0.00 | 0.00 | 18 | 1012.0 |
| 20260903170304 | 76 | 135 | 7.0 | 12.0 | 0.00 | 0.00 | 0.00 | 19 | 1012.2 |
| 20260903165804 | 75 | 138 | 7.0 | 13.0 | 0.00 | 0.00 | 0.00 | 19 | 1012.2 |
| 20260903165305 | 75 | 127 | 7.0 | 14.0 | 0.00 | 0.00 | 0.00 | 19 | 1012.2 |
| 20260903164804 | 75 | 131 | 6.0 | 10.0 | 0.00 | 0.00 | 0.00 | 21 | 1012.0 |
| 20260903164304 | 75 | 141 | 6.0 | 12.0 | 0.00 | 0.00 | 0.00 | 20 | 1012.0 |
| 20260903163804 | 75 | 157 | 5.0 | 12.0 | 0.00 | 0.00 | 0.00 | 19 | 1012.0 |
| 20260903163304 | 74 | 160 | 6.0 | 12.0 | 0.00 | 0.00 | 0.00 | 20 | 1012.0 |
| 20260903162804 | 74 | 128 | 8.0 | 12.0 | 0.00 | 0.00 | 0.00 | 19 | 1012.0 |
| 20260903162306 | 74 | 140 | 7.0 | 12.0 | 0.00 | 0.00 | 0.00 | 21 | 1012.0 |
| 20260903161804 | 74 | 142 | 7.0 | 10.0 | 0.00 | 0.00 | 0.00 | 20 | 1012.0 |
| 20260903161304 | 74 | 139 | 7.0 | 12.0 | 0.00 | 0.00 | 0.00 | 20 | 1012.0 |
| 20260903160804 | 74 | 140 | 5.0 | 10.0 | 0.00 | 0.00 | 0.00 | 21 | 1012.1 |
| 20260903155805 | 73 | 152 | 6.0 | 12.0 | 0.00 | 0.00 | 0.00 | 20 | 1012.0 |
| 20260903155306 | 73 | 145 | 6.0 | 14.0 | 0.00 | 0.00 | 0.00 | 22 | 1012.0 |
| 20260903154304 | 73 | 149 | 5.0 | 12.0 | 0.00 | 0.00 | 0.00 | 24 | 1012.3 |
| 20260903153804 | 72 | 139 | 5.0 | 12.0 | 0.00 | 0.00 | 0.00 | 25 | 1012.3 |
| 20260903153304 | 72 | 149 | 5.0 | 10.0 | 0.00 | 0.00 | 0.00 | 25 | 1012.3 |
| 20260903152804 | 72 | 152 | 6.0 | 12.0 | 0.00 | 0.00 | 0.00 | 26 | 1012.3 |